COSMOS 2544 (759)

Last updated on Tue Oct 28 2025 00:03:24 GMT+0000 (Coordinated Universal Time)

1 44850U 19088A 25300.27563028 .00000041 00000+0 00000+0 0 9993 2 44850 65.4356 81.5118 0012464 245.7629 114.1041 2.13102002 45752
UTC large
Height (km)
Speed (km/s)
/
Latitude / Longitude
Inclination (degrees)
Orbital Period (minutes)
Azimuth
Elevation
Range (km)
Doppler Factor

Next 0 passes for location: London (51.5072 / 0.1276)

Sorry there are no passes over London.